Theta_e
282 282 281 281 281 281 281 281 282 282 282 282 282 282 282 282 281 281 280 280 281 283
281 281 280 281 281 281 281 283 283 282 282 281 280 280 279 280 279 279 279 280 280 281
281 281 281 281 280 280 281 281 281 281 281 281 281 280 280 280 279 278 278 279 278 279
279 279 279 279 279 279 279 279 279 280 280 280 280 280 279 279 279 278 278 278 278 278
279 278 278 277 278 279 278 279 278 278 277 278 278 278 278 278 278 278 277 278 278 278
277 276 276 276 277 277 277 275 275 275 274 274 274 274 274 274 274 275 277 278 278 278
275 275 274 275 275 274 274 272 272 272 272 272 271 272 272 273 272 272 273 274 275 277
275 275 274 274 273 273 272 271 271 270 270 270 270 270 270 271 271 271 271 272 273 273
274 274 273 272 271 270 270 269 269 268 268 267 268 271 273 273 271 272 271 270 271 271
272 271 270 269 268 268 267 267 266 266 266 265 266 270 272 273 271 270 270 270 270 270
270 268 268 267 266 266 265 265 264 264 264 264 265 270 271 272 270 269 269 269 269 269
267 266 265 264 264 264 264 263 263 264 263 262 263 268 270 270 268 268 267 268 269 269
266 264 263 263 262 263 262 262 263 262 262 262 261 266 268 269 268 266 267 268 269 271
264 262 262 261 262 261 260 261 260 260 261 261 262 262 268 270 268 267 267 267 269 270
Wind_Speed
6 4 3 3 2 3 2 3 4 4 4 5 5 5 4 4 4 5 5 6 5 6
5 6 5 6 5 4 4 7 9 9 11 11 8 6 5 5 6 5 6 8 6 6
6 7 7 7 7 7 7 8 10 11 11 12 13 13 13 11 10 10 7 6 8 9
5 6 5 4 5 5 5 6 6 7 8 9 10 9 9 10 11 13 14 13 12 13
4 4 5 5 5 5 6 6 7 9 10 11 10 10 10 12 12 13 14 14 14 16
6 5 6 5 6 5 6 8 8 9 10 11 11 12 12 13 15 15 15 15 16 16
5 5 4 5 4 6 7 8 9 9 10 11 12 13 13 13 14 15 15 16 17 17
4 5 5 7 8 9 10 10 10 12 12 11 11 10 13 15 15 16 16 15 16 15
7 7 8 9 10 11 11 10 11 12 12 13 11 20 25 22 16 16 16 16 15 15
6 7 9 9 10 11 11 12 12 12 12 13 14 24 25 26 15 16 16 16 16 16
5 7 9 10 11 11 10 11 12 12 13 13 12 26 27 27 17 14 16 16 16 17
7 9 10 11 12 11 12 11 11 12 13 13 14 25 27 24 14 13 15 15 15 16
7 7 10 11 12 10 10 13 10 12 12 15 16 23 26 23 12 13 12 14 16 23
7 9 10 11 10 11 11 12 12 13 12 13 14 16 25 26 14 11 12 12 12 12
Wind_Direction
73 73 75 72 41 11 348 328 323 335 334 327 321 325 319 312 306 316 309 298 283 284
35 35 24 16 17 3 353 342 343 338 342 341 335 326 314 314 294 287 288 294 285 282
6 11 11 6 354 346 335 337 332 332 329 326 326 328 330 326 321 316 306 290 288 283
10 20 11 348 323 305 305 308 302 302 306 306 307 302 297 290 292 292 297 298 296 290
28 19 8 355 338 334 329 331 332 326 321 318 316 312 304 300 293 285 280 281 280 280
13 6 350 335 332 343 338 329 324 323 316 312 310 309 303 295 293 293 294 290 282 279
349 341 321 315 332 333 331 324 324 319 315 315 312 309 301 301 303 298 293 293 292 292
347 343 341 341 334 330 326 322 319 317 312 310 307 304 308 303 298 294 292 291 292 290
342 340 333 328 324 320 316 315 313 307 306 305 301 304 305 302 295 297 296 295 293 292
333 328 322 318 316 315 314 311 306 305 305 300 300 301 302 304 300 296 292 292 296 297
326 314 317 316 315 311 308 308 306 303 299 293 293 300 304 303 298 296 293 289 289 290
328 316 316 312 310 309 306 302 300 294 298 294 290 298 302 304 296 290 288 285 285 282
316 307 304 302 301 299 296 294 298 295 294 289 288 292 300 301 292 289 287 283 279 277
306 297 290 291 295 297 296 296 297 294 292 285 282 283 295 302 298 289 282 276 279 274